Location: Newark
(7.0858°N, 171.3717°E)
Time: 05:05:19
(UTC+00:00)

Vanguard 2 - Pass Details

Date: 26 November 2020
Orbit: 553 x 2937 km, 32.9° (Epoch: 26 January)

Event Time Altitude Azimuth Distance (km) Brightness Sun altitude
Rises 21:29:03 0° 259° (W) 4,745 11.2 39.0°
Reaches altitude 10° 21:33:25 10° 270° (W) 3,306 10.5 39.9°
Maximum altitude 21:39:32 25° 323° (NW) 1,820 9.3 41.1°
Drops below altitude 10° 21:43:53 10° 18° (NNE) 2,269 9.9 42.0°
Sets 21:46:19 0° 33° (NNE) 2,997 10.5 42.5°
